Orbital Elements at Epoch 2459200.5 (2020-Dec-17.0) TDB
Reference: JPL 26 (heliocentric ecliptic J2000)
Element | Value | Uncertainty (1-sigma) | Units |
e | .1697955865700091 | 3.0783e-08 | |
a | 2.350545071994647 | 9.1875e-09 | au |
q | 1.951432892736071 | 7.2358e-08 | au |
i | 10.49559994758833 | 3.0605e-06 | deg |
node | 153.1384914804846 | 2.0444e-05 | deg |
peri | 228.5837870092359 | 2.3569e-05 | deg |
M | 279.604253623525 | 1.4208e-05 | deg |
tp | 2459494.455690911826 (2021-Oct-06.95569091) | 5.3174e-05 | TDB |
period | 1316.289150830286 3.60 | 7.7174e-06 2.113e-08 | d yr |
n | .2734961385748108 | 1.6035e-09 | deg/d |
Q | 2.749657251253222 | 1.0748e-08 | au |
|
| | Orbit Determination Parameters
Additional Information
|